Location: Blackpool
(53.8200°N, 3.0410°W)
Time: 23:25:52
(UTC+00:00)

Envisat - Visible Passes

Search period start: 17 February 2018 00:00
Search period end: 27 February 2018 00:00
Orbit: 764 x 766 km, 98.2° (Epoch: 17 February)

Date Brightness Start Highest point End Pass type
(mag) Time Alt. Az. Time Alt. Az. Time Alt. Az.
17 Feb 4.0 18:07:18 10° ESE 18:11:28 26° ENE 18:15:38 10° N visible
17 Feb 3.4 19:45:07 10° S 19:50:09 64° WSW 19:55:14 10° NNW visible
17 Feb 5.9 21:28:38 10° W 21:30:13 11° W 21:31:49 10° WNW visible
18 Feb 2.9 19:08:21 10° SSE 19:13:24 70° ENE 19:18:29 10° NNW visible
18 Feb 5.3 20:49:02 10° SW 20:52:56 22° W 20:56:52 10° NW visible
19 Feb 3.5 18:32:10 10° SE 18:36:51 38° ENE 18:41:32 10° N visible
19 Feb 4.2 20:11:05 10° SSW 20:15:52 41° W 20:20:41 10° NNW visible
20 Feb 3.1 19:33:54 10° S 19:38:59 77° WSW 19:44:07 10° NNW visible
20 Feb 5.8 21:16:17 10° WSW 21:18:54 14° W 21:21:32 10° NW visible
21 Feb 3.0 18:57:19 10° SE 19:02:18 58° ENE 19:07:19 10° N visible
21 Feb 5.0 20:37:26 10° SSW 20:41:41 26° W 20:45:57 10° NW visible
22 Feb 3.7 18:21:18 10° ESE 18:25:47 32° ENE 18:30:17 10° N visible
22 Feb 3.9 19:59:45 10° S 20:04:40 49° W 20:09:37 10° NNW visible
23 Feb 2.9 19:22:45 10° SSE 19:27:51 89° ENE 19:32:58 10° NNW visible
23 Feb 5.6 21:04:19 10° SW 21:07:36 17° W 21:10:52 10° NW visible
24 Feb 3.2 18:46:20 10° SE 18:51:12 48° ENE 18:56:06 10° N visible
24 Feb 4.7 20:25:56 10° SSW 20:30:26 31° W 20:34:59 10° NNW visible
25 Feb 3.9 18:10:29 10° ESE 18:14:45 28° ENE 18:19:01 10° N visible
25 Feb 3.5 19:48:28 10° S 19:53:29 59° W 19:58:32 10° NNW visible
25 Feb 6.0 21:32:47 10° W 21:33:37 10° W 21:34:27 10° WNW visible
26 Feb 2.9 19:11:39 10° SSE 19:16:43 75° ENE 19:21:49 10° NNW visible
26 Feb 5.4 20:52:34 10° SW 20:56:18 20° W 21:00:05 10° NW visible
